Powrót do katalogu

STARLINK-2569

AktywnyŁącznośćVLEO
NORAD 48277·PAYLOAD·🇺🇸 United States

Wystrzelony Apr 29, 2021 z Cape Canaveral Space Force Station

Loading…

Następne Przeloty (najbliższe 24 godziny)

TLE

ŚwieżeSource: CelesTrak SupGP

Epoka: Sep 14, 2026, 21:07 UTC

1 48277C 21036B   26257.88034722  .00037562  00000+0  95929-3 0  2572
2 48277  53.1219 209.8002 0004550  78.5749 353.1084 15.38878599    14

Śledź STARLINK-2569 w czasie rzeczywistym z AllMySat

Download on the App Store